Regional Weather Roundup
Issued by NWS Green Bay, WI

Home | Current Version | Previous Version | Graphics & Text | Print | Product List | Glossary Off
Versions: 1 2 3 4 5 6 7 8 9 10 11 12 13 14 15 16 17 18 19 20 21 22 23 24 25 26 27 28 29 30 31 32 33 34 35 36 37 38 39 40 41 42 43 44 45 46 47 48 49 50

000
ASUS43 KGRB 242000
RWRGRB

NORTH-CENTRAL AND NORTHEAST WISCONSIN REGIONAL WEATHER ROUNDUP
NATIONAL WEATHER SERVICE GREEN BAY WI
200 PM CST FRI NOV 24 2017

WIZ005-009-010>012-018-019-242100-
NORTH CENTRAL WISCONSIN

CITY           SKY/WX    TMP DP  RH WIND       PRES   REMARKS
IRONWOOD       LGT RAIN  45  40  82 SW8       29.28R
MANITOWISH WTR NOT AVBL
ARBOR VITAE    NOT AVBL
EAGLE RIVER    MOSUNNY   54  36  50 W15       29.27S
LAND O LAKES   NOT AVBL
RHINELANDER    MOSUNNY   54  39  57 W10       29.29F
PHILLIPS       MOSUNNY   54  39  58 SW9       29.30F
ANTIGO         NOT AVBL
TOMAHAWK       NOT AVBL
MERRILL        CLOUDY    55  39  54 W9        29.31R
$$

WIZ013-073-242100-
NORTHEAST WISCONSIN

CITY           SKY/WX    TMP DP  RH WIND       PRES   REMARKS
IRON MOUNTAIN  PTSUNNY   57  36  45 W14       29.24S
MARINETTE      CLOUDY    56  37  49 SW8       29.26F
$$

WIZ017-030-035>037-045-242100-
CENTRAL WISCONSIN

CITY           SKY/WX    TMP DP  RH WIND       PRES   REMARKS
MEDFORD        NOT AVBL
WAUSAU         SUNNY     59  38  45 W12       29.29R
MOSINEE        MOSUNNY   61  37  41 SW15G23   29.30R
MARSHFIELD     SUNNY     60  37  42 W15G23    29.31R
WISC RAPIDS    SUNNY     64  39  39 W16G23    29.31R
STEVENS POINT  NOT AVBL
WAUPACA        NOT AVBL
SHAWANO        MOSUNNY   63  37  38 S3        29.25F
CLINTONVILLE   NOT AVBL
WAUTOMA        SUNNY     65  38  36 SW17G24   29.28F
$$

WIZ038-039-048-051-242100-
FOX VALLEY

CITY           SKY/WX    TMP DP  RH WIND       PRES   REMARKS
NWS GREEN BAY  MOSUNNY   60  40  47 S17G25    29.27F
APPLETON       PTSUNNY   61  34  36 S20       29.27F
OSHKOSH        SUNNY     63  39  41 SW23G37   29.28F
FOND DU LAC    SUNNY     63  36  36 S22G35    29.31F
$$

WIZ022-050-052-242100-
EAST CENTRAL WISCONSIN

CITY           SKY/WX    TMP DP  RH WIND       PRES   REMARKS
EPHRAIM        NOT AVBL
WASHINGTON ISL NOT AVBL
STURGEON BAY   MOSUNNY   49  39  68 S15       29.26F
MANITOWOC      SUNNY     53  39  59 S13       29.31F
SHEBOYGAN      SUNNY     66  39  37 S22G31    29.33F
$$

LMZ563-521-522-541>543-242100-
LAKESHORE

STATION/POSITION TIME  TEMP    WIND        PRES    VSBY  WAVE
                       AIR SEA DIR/SP/G                  HT/PER
                 (UTC) (F)     (DEG/KT/KT) (MB)    (MI)  (FT/S)
SHEBOYGAN LKSHOR 1900   46     170/ 26/ 28  994.7F
KEWAUNEE LKSHORE 1930   43     180/ 16/ 18  992.2F
NORTHPORT PIER   1940   47     180/ 10/ 17  991.2F
N MID LAKE BUOY  1850   48 47  190/ 29/ 35  992.1F        11/ 8
SISTER BAY LKSHO 1905   53     170/ 17/ 20   N/A
MENOMINEE LKSHOR 1930   53     190/ 13/ 23  990.8F
$$




USA.gov is the U.S. government's official web portal to all federal, state and local government web resources and services.